Location: Newark
(52.1031°N, 9.3600°E)
Time: 06:14:37
(UTC+00:00)

nSIGHT-1 - Pass Details

Date: 16 December 2019
Orbit: 315 x 317 km, 51.6° (Epoch: 19 January)

Event Time Altitude Azimuth Distance (km) Brightness Sun altitude
Exits shadow 06:20:31 12° 268° (W) 1,135 ? -9.2°
Maximum altitude 06:23:02 83° 183° (S) 324 ? -8.9°
Drops below altitude 10° 06:25:44 10° 92° (E) 1,219 ? -8.5°
Sets 06:27:42 0° 92° (E) 2,049 ? -8.2°
